[[{"header":{"parameterUnit":"m.s-1","parameterCategory":1,"la1":30.2991,"la2":30.254,"lo1":-89.0895,"lo2":-89.0444,"dy":0.0017,"dx":0.0017,"nx":28,"ny":28,"refTime":"2024-04-01T03:00:00:Z","depth":0,"parameterNumber":2,"parameterNumberName":"U-component_of_WINDS"},"data":[0,0,0,0,0,0,0,0,0,0,0,0,0,0,0,0,0,0,0,0,0,0,0,0,0,0,0,0,0,0,0,0,0,0,0,0,0,0,0,0,0,0,0,0,0,0,0,0,0,0,0,0,0,0,0,0,0,0,-1.8515,-1.8516,0,-1.8562,-1.8562,-1.8563,-1.8514,-1.8512,-1.851,-1.8508,-1.8554,-1.8557,-1.856,0,0,0,0,0,0,0,0,0,0,0,0,0,-1.8381,-1.8383,-1.8515,-1.8516,-1.8516,-1.8562,-1.8562,-1.8563,-1.8514,-1.8512,-1.8509,-1.8507,-1.8553,-1.8557,-1.8561,0,0,0,0,0,0,0,0,0,0,0,0,0,-1.8434,-1.8384,-1.8515,-1.8497,-1.8496,-1.8562,-1.8562,-1.8563,-1.8514,-1.8511,-1.8509,-1.8506,-1.8552,-1.8557,-1.8561,-1.8646,0,0,-1.8575,-1.8577,0,0,0,0,0,0,0,0,-1.8431,-1.8439,-1.8499,-1.8499,-1.8497,-1.8529,-1.8532,-1.8591,-1.8515,-1.8507,-1.8508,-1.8505,-1.8548,-1.8553,-1.8568,-1.8648,-1.865,-1.8575,-1.8578,-1.858,-1.8581,0,0,0,0,0,0,0,-1.8428,-1.8437,-1.8533,-1.85,-1.8499,-1.8486,-1.8491,-1.8543,-1.8543,-1.8508,-1.8504,-1.8511,-1.8547,-1.8564,-1.8568,-1.8651,-1.8575,-1.8579,-1.8582,-1.8584,-1.8799,-1.8802,0,0,0,0,0,0,-1.8426,-1.8434,-1.8532,-1.8535,-1.8457,-1.8491,-1.8496,-1.8522,-1.8542,-1.8543,-1.8513,-1.8508,-1.8557,-1.8563,-1.857,-1.8667,-1.858,-1.8584,-1.8587,-1.8796,-1.88,-1.8803,0,0,0,0,0,0,-1.8424,-1.8436,-1.853,-1.8484,-1.8495,-1.8496,-1.8526,-1.8524,-1.854,-1.8546,-1.8546,-1.853,-1.8555,-1.8564,-1.8626,-1.8668,-1.8586,-1.859,-1.8792,-1.8797,-1.8801,-1.8865,0,0,0,0,0,0,-1.842,-1.8435,-1.8468,-1.8485,-1.8497,-1.8587,-1.8528,-1.8527,-1.8548,-1.8543,-1.8562,-1.8562,-1.8554,-1.862,-1.8631,-1.8673,-1.8594,-1.8789,-1.8795,-1.88,-1.8859,-1.8871,-1.8881,0,0,0,0,0,-1.8415,-1.8484,-1.847,-1.8482,-1.8539,-1.8589,-1.8596,-1.8585,-1.8552,-1.8584,-1.8588,-1.8562,-1.8663,-1.8627,-1.8639,-1.8683,-1.8786,-1.8793,-1.8799,-1.8854,-1.8869,-1.8881,0,0,0,0,0,0,-1.8472,-1.8486,-1.847,-1.8547,-1.8567,-1.8581,-1.8621,-1.8602,-1.8632,-1.8625,-1.8609,-1.8614,-1.868,-1.8688,-1.8648,-1.8764,-1.8719,-1.8728,-1.8756,-1.877,-1.8781,-1.8776,-1.8597,0,0,0,0,0,-1.8494,-1.8534,-1.8544,-1.8611,-1.8622,-1.862,-1.8642,-1.8631,-1.8652,-1.866,-1.8668,-1.8688,-1.8724,-1.8748,-1.8782,-1.8861,-1.8863,-1.8897,-1.8908,-1.8917,-1.8925,-1.8964,-1.8978,-1.8825,-1.8825,-1.8825,0,0,-1.8538,-1.8551,-1.8577,-1.8622,-1.8637,-1.8678,-1.8628,-1.8674,-1.8704,-1.8667,-1.8726,-1.8733,-1.8754,-1.8825,-1.8856,-1.8834,-1.8968,-1.8926,-1.8933,-1.8936,-1.8972,-1.8987,-1.8999,-1.883,-1.8829,-1.8828,0,0,-1.8639,-1.8655,-1.871,-1.8725,-1.8748,-1.8746,-1.876,-1.8776,-1.8779,-1.8839,-1.8811,-1.8846,-1.8909,-1.8924,-1.8941,-1.9047,-1.9023,-1.9058,-1.9115,-1.9154,-1.9166,-1.9176,-1.9211,-1.9223,-1.9066,-1.9067,-1.9067,0,-1.8691,-1.8752,-1.8741,-1.8788,-1.8807,-1.8777,-1.8831,-1.8847,-1.888,-1.8893,-1.8868,-1.8944,-1.8957,-1.9029,-1.9055,-1.907,-1.9083,-1.9055,-1.9165,-1.9176,-1.9185,-1.9218,-1.9231,-1.9071,-1.907,-1.907,-1.9069,0,-1.8813,-1.8857,-1.8899,-1.893,-1.8954,-1.9006,-1.9,-1.9027,-1.9014,-1.9015,-1.9074,-1.9088,-1.9122,-1.914,-1.9128,-1.9209,-1.9194,-1.9168,-1.9121,-1.9204,-1.9234,-1.9246,-1.9076,-1.9075,-1.9074,-1.9073,0,0,-1.895,-1.8974,-1.8989,-1.9002,-1.9024,-1.9057,-1.9106,-1.914,-1.9161,-1.9185,-1.9223,-1.9277,-1.9252,-1.927,-1.926,-1.9295,-1.9373,-1.9263,-1.9263,-1.928,-1.946,-1.9477,-1.9492,-1.9359,-1.9361,-1.9363,-1.9456,0,-1.9049,-1.9134,-1.9124,-1.9204,-1.9242,-1.9213,-1.9255,-1.9273,-1.9275,-1.9306,-1.9308,-1.9345,-1.9311,-1.9321,-1.9354,-1.9357,-1.9408,-1.935,-1.9392,-1.9394,-1.9384,-1.9508,-1.9527,-1.9614,-1.9469,-1.9471,-1.9472,0,-1.9175,-1.9202,-1.9286,-1.93,-1.9316,-1.9354,-1.9383,-1.9414,-1.9433,-1.9432,-1.9452,-1.9436,-1.9483,-1.9438,-1.9502,-1.9462,-1.9479,-1.9483,-1.9486,-1.9487,-1.9435,-1.9508,-1.9642,-1.9654,-1.9491,-1.949,-1.9488,0,-1.9262,-1.932,-1.9376,-1.9389,-1.9408,-1.9435,-1.9444,-1.946,-1.948,-1.9506,-1.9518,-1.9549,-1.9565,-1.9589,-1.9581,-1.9549,-1.9645,-1.96,-1.9643,-1.9643,-1.9662,-1.966,-1.9796,-1.9679,-1.9679,-1.9679,-1.9678,0,-1.9371,-1.9422,-1.9415,-1.9449,-1.9506,-1.9494,-1.955,-1.9555,-1.957,-1.9604,-1.9582,-1.9614,-1.9603,-1.9635,-1.9629,-1.968,-1.9689,-1.9688,-1.9685,-1.9688,-1.9687,-1.9696,-1.9688,-1.9682,-1.9681,-1.9681,-1.968,0,-1.9475,-1.9473,-1.9532,-1.9546,-1.955,-1.959,-1.9601,-1.9633,-1.9633,-1.9676,-1.9686,-1.9686,-1.9721,-1.9716,-1.9757,-1.9753,-1.9816,-1.9807,-1.9809,-1.9805,-1.9847,-1.9842,-1.9991,-2.0008,-1.9883,-1.9885,-1.9886,0,-1.9543,-1.9582,-1.9599,-1.962,-1.9631,-1.9666,-1.9686,-1.9676,-1.9698,-1.9721,-1.975,-1.9783,-1.9809,-1.9867,-1.987,-1.99,-1.989,-1.994,-1.9894,-1.9895,-1.9886,-1.9882,-1.9884,-1.9948,-1.9949,-1.9951,-1.9952,0,-1.9663,-1.966,-1.969,-1.9719,-1.9743,-1.9766,-1.9786,-1.9805,-1.9797,-1.9822,-1.9858,-1.9878,-1.9918,-1.9951,-1.9979,-1.9987,-1.9967,-1.9967,-1.9977,-1.9978,-1.9976,-1.9974,-1.9829,-1.9962,-1.9961,-1.996,-1.996,-1.9959,-1.9749,-1.9781,-1.9797,-1.983,-1.9845,-1.9864,-1.9893,-1.9897,-1.9927,-1.9958,-1.9951,-1.9991,-2.0007,-2.0042,-2.0053,-2.0083,-2.0065,-2.0081,-2.0085,-2.0088,-2.0091,-1.9975,-2.0089,-2.0089,-2.0088,-2.0088,-2.0088,0,-1.9864,-1.9873,-1.9904,-1.9932,-1.9958,-1.9939,-1.996,-1.9982,-2.0017,-2.0035,-2.006,-2.01,-2.0132,-2.0137,-2.0166,-2.0189,-2.0181,-2.0197,-2.0193,-2.0195,-2.0108,-2.0094,-2.0203,-2.0203,-2.0203,-2.0203,-2.0203,-2.0203,-1.9927,-1.9978,-1.9977,-2.0034,-2.0043,-2.0081,-2.0094,-2.0111,-2.0124,-2.017,-2.0196,-2.0199,-2.0211,-2.0241,-2.0268,-2.0269,-2.0279,-2.0298,-2.0295,-2.0213,-2.0201,-2.019,-2.0177,-2.0301,-2.0301,-2.0378,-2.0379,-2.0379]},{"header":{"parameterUnit":"m.s-1","parameterCategory":1,"la1":30.2991,"la2":30.254,"lo1":-89.0895,"lo2":-89.0444,"dy":0.0017,"dx":0.0017,"nx":28,"ny":28,"refTime":"2024-04-01T03:00:00:Z","depth":0,"parameterNumber":3,"parameterNumberName":"V-component_of_WINDS"},"data":[0,0,0,0,0,0,0,0,0,0,0,0,0,0,0,0,0,0,0,0,0,0,0,0,0,0,0,0,0,0,0,0,0,0,0,0,0,0,0,0,0,0,0,0,0,0,0,0,0,0,0,0,0,0,0,0,0,0,4.6027,4.6027,0,4.6043,4.6043,4.6043,4.61,4.6102,4.6103,4.6104,4.6114,4.6113,4.6112,0,0,0,0,0,0,0,0,0,0,0,0,0,4.6042,4.6042,4.6027,4.6027,4.6027,4.6043,4.6043,4.6043,4.61,4.6102,4.6103,4.6105,4.6115,4.6113,4.6112,0,0,0,0,0,0,0,0,0,0,0,0,0,4.6044,4.6042,4.6027,4.6058,4.606,4.6043,4.6043,4.6043,4.61,4.6102,4.6104,4.6105,4.6115,4.6113,4.6112,4.6064,0,0,4.6108,4.6107,0,0,0,0,0,0,0,0,4.6044,4.6044,4.6053,4.6055,4.6059,4.6072,4.6052,4.605,4.6099,4.6085,4.6104,4.6106,4.6098,4.6098,4.6097,4.6064,4.6065,4.6108,4.6107,4.6106,4.6106,0,0,0,0,0,0,0,4.6044,4.6043,4.6033,4.6053,4.6056,4.607,4.6072,4.6052,4.608,4.6086,4.609,4.6092,4.61,4.6098,4.6097,4.6065,4.6108,4.6106,4.6105,4.6105,4.5998,4.5996,0,0,0,0,0,0,4.604,4.6043,4.6032,4.6033,4.6056,4.6068,4.6071,4.6065,4.608,4.6085,4.609,4.6094,4.6099,4.6099,4.6098,4.6045,4.6106,4.6105,4.6104,4.6,4.5998,4.5995,0,0,0,0,0,0,4.604,4.6039,4.6032,4.6039,4.604,4.6065,4.6059,4.6065,4.6063,4.6083,4.6088,4.6083,4.6101,4.61,4.6073,4.6046,4.6104,4.6103,4.6002,4.5999,4.5997,4.5938,0,0,0,0,0,0,4.6041,4.6038,4.6021,4.6039,4.6039,4.6007,4.6057,4.6063,4.6061,4.6067,4.6078,4.6082,4.6102,4.6075,4.6072,4.6045,4.6102,4.6005,4.6001,4.5998,4.5942,4.5933,4.5926,0,0,0,0,0,4.6041,4.6001,4.602,4.6018,4.6018,4.6006,4.6006,4.6032,4.6058,4.6041,4.6055,4.6081,4.605,4.6072,4.6069,4.6041,4.6007,4.6002,4.5998,4.5946,4.5935,4.5926,0,0,0,0,0,0,4.5976,4.6004,4.6025,4.599,4.5996,4.6016,4.5994,4.6019,4.6015,4.6021,4.6052,4.6054,4.6023,4.6029,4.6054,4.5998,4.6033,4.6028,4.5995,4.5985,4.5976,4.5976,4.6101,0,0,0,0,0,4.5959,4.5948,4.5972,4.5939,4.5941,4.5967,4.5963,4.5983,4.5989,4.5991,4.6003,4.6007,4.5998,4.5991,4.5984,4.5944,4.5948,4.5924,4.5915,4.5908,4.5903,4.5886,4.5876,4.5981,4.5981,4.5981,0,0,4.5921,4.5935,4.5925,4.5927,4.5934,4.5922,4.5969,4.5953,4.5945,4.5988,4.5966,4.5974,4.598,4.5948,4.5934,4.5952,4.5876,4.5903,4.5897,4.5896,4.588,4.587,4.5861,4.5978,4.5978,4.5979,0,0,4.5846,4.5855,4.5831,4.5838,4.5849,4.5867,4.5861,4.5878,4.5887,4.5865,4.5899,4.5888,4.5872,4.5876,4.5876,4.5808,4.5833,4.5804,4.5761,4.5743,4.5735,4.5728,4.5706,4.5697,4.5799,4.5799,4.5799,0,4.5797,4.5783,4.5814,4.5798,4.5799,4.5841,4.5817,4.5821,4.5828,4.5827,4.5848,4.5832,4.5838,4.5809,4.5793,4.579,4.5786,4.5803,4.5734,4.5727,4.5721,4.57,4.5692,4.5796,4.5796,4.5797,4.5797,0,4.5723,4.5712,4.5691,4.5701,4.5699,4.5678,4.5707,4.57,4.5722,4.5738,4.5716,4.5727,4.5724,4.5718,4.5737,4.5693,4.5704,4.5729,4.5765,4.5707,4.5688,4.5681,4.5791,4.5792,4.5793,4.5794,0,0,4.5607,4.5638,4.5629,4.5636,4.5653,4.5645,4.5627,4.5628,4.5623,4.5626,4.5613,4.5601,4.5625,4.5625,4.5645,4.5629,4.5579,4.5657,4.5657,4.5644,4.5533,4.5516,4.5506,4.5596,4.5594,4.5593,4.5534,0,4.5538,4.5512,4.5542,4.5509,4.5501,4.5542,4.5527,4.5536,4.5551,4.5545,4.5561,4.5553,4.5585,4.5586,4.5572,4.5588,4.5557,4.5592,4.5584,4.5583,4.5583,4.5496,4.5477,4.542,4.5526,4.5525,4.5524,0,4.5455,4.5459,4.5426,4.5449,4.5447,4.5433,4.5438,4.5432,4.5443,4.5455,4.5458,4.5483,4.5468,4.5503,4.5483,4.5506,4.5505,4.5512,4.5511,4.5512,4.5551,4.5496,4.5402,4.5395,4.5512,4.5513,4.5514,0,4.5376,4.5373,4.5355,4.5358,4.5384,4.5374,4.5383,4.5397,4.5397,4.54,4.5401,4.5401,4.5402,4.5402,4.5427,4.545,4.5405,4.5441,4.5415,4.5414,4.5404,4.5404,4.531,4.54,4.54,4.54,4.54,0,4.5298,4.5276,4.5321,4.5309,4.5287,4.5321,4.5298,4.5312,4.5325,4.5317,4.5351,4.5343,4.5377,4.5372,4.5391,4.5373,4.5372,4.5382,4.5388,4.538,4.5379,4.538,4.5385,4.5398,4.5398,4.5399,4.5399,0,4.5207,4.5235,4.5218,4.5245,4.5251,4.5234,4.5257,4.5248,4.5266,4.5256,4.5255,4.5284,4.528,4.5306,4.5306,4.5319,4.5292,4.5304,4.5289,4.5294,4.5267,4.527,4.5171,4.5161,4.5255,4.5254,4.5254,0,4.5155,4.5141,4.5168,4.5166,4.5175,4.5171,4.5173,4.5206,4.5206,4.522,4.5209,4.5209,4.5211,4.5203,4.5224,4.5225,4.5238,4.5203,4.5238,4.5232,4.524,4.5241,4.5241,4.5196,4.5194,4.5193,4.5193,0,4.5062,4.5078,4.508,4.5087,4.5088,4.5094,4.5103,4.5099,4.5136,4.5134,4.5133,4.5134,4.5137,4.5137,4.5143,4.5152,4.5179,4.5182,4.5176,4.5169,4.5162,4.5168,4.5272,4.5184,4.5185,4.5185,4.5186,4.5186,4.4991,4.4982,4.5001,4.5002,4.5013,4.5021,4.5015,4.5034,4.5034,4.5041,4.506,4.5056,4.5071,4.5082,4.5089,4.5086,4.5103,4.5094,4.5092,4.509,4.5086,4.5162,4.5087,4.5087,4.5087,4.5088,4.5088,0,4.4902,4.4917,4.4918,4.4932,4.4933,4.496,4.4972,4.4971,4.4968,4.498,4.4983,4.4983,4.4984,4.5006,4.501,4.5003,4.5016,4.5003,4.5005,4.5007,4.507,4.5075,4.4993,4.4993,4.4993,4.4993,4.4993,4.4993,4.4856,4.4843,4.4861,4.4854,4.4869,4.4868,4.4873,4.4881,4.4891,4.4891,4.4893,4.4908,4.4925,4.4931,4.4933,4.494,4.494,4.4924,4.4935,4.4993,4.5002,4.5011,4.5017,4.4924,4.4923,4.4873,4.4872,4.4872]}]]